Home > Weather > Bengaluru > Past weeks

Flag for India Past Weather in Bengaluru, Karnataka, India — Yesterday and Last 2 Weeks

Now
73 °F

More clouds than sun.


Feels Like: 72 °F
Forecast: 69 / 77 °F
Wind: 16 mph from West

Location: Bangalore / Hindustan

Current Time: Jun 29, 2016 at 12:51:45 PM

Latest Report: Jun 29, 2016 at 12:30 PM


Visibility: N/A

Pressure: 29.86 "Hg (26.99 "Hg at 876m altitude)

Humidity: 89%

Dew Point: 70 °F

Location of BengaluruLocation

Past Weather in Bengaluru — Graph

°F

Bengaluru Temperature Yesterday

Maximum temperature yesterday: 79 °F (at 1:00 PM)
Minimum temperature yesterday: 70 °F (at 5:30 AM)
Average temperature yesterday: 74 °F

High & Low Weather Summary for the Past Weeks

 TemperatureHumidityPressure
High86 °F (Jun 15, 2:30 PM)100% (Jun 23, 8:30 AM)29.95 "Hg (Jun 23, 8:30 AM)
Low68 °F (Jun 20, 5:30 AM)46% (Jun 15, 5:00 PM)29.74 "Hg (Jun 16, 4:00 PM)
Average76 °F76%29.84 "Hg
* Reported Jun 14 11:30 AM — Jun 29 11:30 AM, Bengaluru, Weather by CustomWeather, © 2016

Note: Actual official high and low records may vary slightly from our data, if they occured in-between our weather recording intervals... More about our weather records

Advertising

Bengaluru Weather History for the Previous 24 Hours

Scroll right to see more
 ConditionsComfort  
Time TempWeatherWind HumidityBarometerVisibility
11:30 AM
Wed, Jun 29
72 °FMore clouds than sun.16 mph94%29.89 "HgN/A
11:00 AM70 °FDrizzle. More clouds than sun.14 mph94%29.89 "Hg4 mi
10:30 AM70 °FLight rain. More clouds than sun.16 mph94%29.89 "Hg4 mi
10:00 AM70 °FLight rain. More clouds than sun.15 mph94%29.89 "Hg4 mi
9:30 AM70 °FLight rain. More clouds than sun.15 mph94%29.89 "Hg4 mi
9:00 AM70 °FLight rain. More clouds than sun.14 mph94%29.89 "Hg4 mi
8:30 AM70 °FLight rain. More clouds than sun.12 mph94%29.86 "Hg4 mi
8:00 AM70 °FLight rain. More clouds than sun.14 mph94%29.86 "Hg4 mi
7:30 AM70 °FLight rain. More clouds than sun.14 mph94%29.86 "Hg4 mi
7:00 AM70 °FLight rain. More clouds than sun.14 mph94%29.83 "Hg4 mi
6:30 AM70 °FLight rain. More clouds than sun.14 mph94%29.83 "Hg4 mi
6:00 AM70 °FLight rain. Partly cloudy.17 mph94%29.83 "Hg5 mi
5:30 AM70 °FPartly cloudy.12 mph94%29.80 "HgN/A
11:30 PM
Tue, Jun 28
72 °FLight rain. Partly cloudy.9 mph88%29.86 "HgN/A
10:30 PM72 °FLight rain. Partly cloudy.9 mph88%29.86 "HgN/A
9:30 PM72 °FLight rain. Partly cloudy.14 mph88%29.86 "HgN/A
8:30 PM72 °FPartly cloudy.16 mph88%29.86 "HgN/A
7:30 PM73 °FPartly cloudy.16 mph83%29.83 "HgN/A
6:30 PM75 °FBroken clouds.14 mph78%29.80 "HgN/A
5:30 PM77 °FBroken clouds.14 mph74%29.77 "HgN/A
5:00 PM77 °FScattered clouds.16 mph74%29.77 "HgN/A
4:30 PM77 °FScattered clouds.16 mph79%29.77 "HgN/A
4:00 PM77 °FScattered clouds.16 mph79%29.77 "HgN/A
3:30 PM79 °FScattered clouds.16 mph70%29.77 "Hg5 mi
3:00 PM79 °FScattered clouds.13 mph74%29.80 "Hg5 mi
2:00 PM79 °FScattered clouds.16 mph70%29.80 "Hg5 mi
1:30 PM79 °FScattered clouds.16 mph74%29.83 "Hg5 mi
1:00 PM79 °FScattered clouds.12 mph74%29.83 "Hg5 mi
12:30 PM77 °FBroken clouds.12 mph83%29.83 "Hg5 mi
12:00 PM73 °FDrizzle. Broken clouds.9 mph89%29.86 "Hg5 mi
Weather by CustomWeather, © 2016

See weather overviewHow to use our weather pages